| time (UTC) | temp F | wind direction | speed knots | gust knots | rain 1hr in | rain 24hr in | rain mn in | humidity % | barometer mb |
| 20260506044423 | 59 | 31 | 0.0 | 0.0 | 0.00 | 0.00 | 0.00 | 78 | 1016.0 |
| 20260506043923 | 59 | 31 | 0.0 | 0.0 | 0.00 | 0.00 | 0.00 | 78 | 1015.8 |
| 20260506042923 | 60 | 31 | 0.0 | 0.0 | 0.00 | 0.00 | 0.00 | 77 | 1015.9 |
| 20260506042423 | 60 | 31 | 0.0 | 0.0 | 0.00 | 0.00 | 0.00 | 77 | 1015.6 |
| 20260506041923 | 60 | 31 | 0.0 | 0.9 | 0.00 | 0.00 | 0.00 | 76 | 1015.6 |
| 20260506041423 | 60 | 31 | 0.0 | 0.9 | 0.00 | 0.00 | 0.00 | 76 | 1015.6 |
| 20260506040423 | 61 | 30 | 0.0 | 0.0 | 0.00 | 0.00 | 0.00 | 75 | 1015.4 |
| 20260506035923 | 61 | 30 | 0.0 | 0.0 | 0.00 | 0.00 | 0.00 | 75 | 1015.4 |
| 20260506034923 | 62 | 30 | 0.0 | 0.0 | 0.00 | 0.00 | 0.00 | 75 | 1015.1 |
| 20260506034423 | 62 | 30 | 0.0 | 0.0 | 0.00 | 0.00 | 0.00 | 75 | 1015.1 |
| 20260506033923 | 62 | 30 | 0.0 | 1.7 | 0.00 | 0.00 | 0.00 | 75 | 1014.9 |
| 20260506033423 | 62 | 31 | 0.0 | 1.7 | 0.00 | 0.00 | 0.00 | 75 | 1014.9 |
| 20260506032923 | 63 | 80 | 0.0 | 1.7 | 0.00 | 0.00 | 0.00 | 74 | 1014.9 |
| 20260506032422 | 63 | 125 | 0.0 | 0.0 | 0.00 | 0.00 | 0.00 | 73 | 1014.8 |
| 20260506031923 | 63 | 125 | 0.0 | 0.0 | 0.00 | 0.00 | 0.00 | 73 | 1014.8 |
| 20260506031423 | 63 | 125 | 0.0 | 0.0 | 0.00 | 0.00 | 0.00 | 73 | 1014.8 |
| 20260506030923 | 64 | 125 | 0.0 | 1.7 | 0.00 | 0.00 | 0.00 | 72 | 1014.7 |
| 20260506030423 | 64 | 125 | 0.0 | 1.7 | 0.00 | 0.00 | 0.00 | 71 | 1014.7 |
| 20260506025922 | 64 | 114 | 0.0 | 0.9 | 0.00 | 0.00 | 0.00 | 71 | 1014.7 |
| 20260506025423 | 64 | 114 | 0.0 | 2.6 | 0.00 | 0.00 | 0.00 | 71 | 1014.6 |
| 20260506024422 | 64 | 132 | 1.7 | 1.7 | 0.00 | 0.00 | 0.00 | 71 | 1014.6 |
| 20260506023924 | 64 | 127 | 0.0 | 2.6 | 0.00 | 0.00 | 0.00 | 71 | 1014.5 |
| 20260506022923 | 65 | 123 | 0.9 | 2.6 | 0.00 | 0.00 | 0.00 | 70 | 1014.5 |
| 20260506022423 | 65 | 123 | 0.0 | 2.6 | 0.00 | 0.00 | 0.00 | 70 | 1014.5 |
| 20260506021423 | 65 | 120 | 0.9 | 3.5 | 0.00 | 0.00 | 0.00 | 69 | 1014.5 |
| 20260506020922 | 65 | 115 | 1.7 | 2.6 | 0.00 | 0.00 | 0.00 | 70 | 1014.5 |
| 20260506020422 | 65 | 146 | 0.9 | 4.3 | 0.00 | 0.00 | 0.00 | 70 | 1014.5 |
| 20260506015922 | 65 | 71 | 0.0 | 4.3 | 0.00 | 0.00 | 0.00 | 68 | 1014.5 |
| 20260506015422 | 65 | 166 | 0.9 | 4.3 | 0.00 | 0.00 | 0.00 | 68 | 1014.4 |
| 20260506014922 | 65 | 107 | 1.7 | 4.3 | 0.00 | 0.00 | 0.00 | 68 | 1014.4 |
| 20260506014422 | 66 | 140 | 1.7 | 4.3 | 0.00 | 0.00 | 0.00 | 68 | 1014.5 |
| 20260506013922 | 66 | 142 | 1.7 | 5.2 | 0.00 | 0.00 | 0.00 | 68 | 1014.5 |
| 20260506013422 | 66 | 92 | 1.7 | 5.2 | 0.00 | 0.00 | 0.00 | 68 | 1014.5 |
| 20260506012922 | 66 | 140 | 0.0 | 4.3 | 0.00 | 0.00 | 0.00 | 67 | 1014.5 |
| 20260506012422 | 66 | 130 | 2.6 | 4.3 | 0.00 | 0.00 | 0.00 | 67 | 1014.5 |
| 20260506011422 | 66 | 144 | 0.0 | 3.5 | 0.00 | 0.00 | 0.00 | 68 | 1014.5 |
| 20260506010922 | 66 | 140 | 1.7 | 3.5 | 0.00 | 0.00 | 0.00 | 68 | 1014.5 |
| 20260506010422 | 66 | 150 | 0.0 | 1.7 | 0.00 | 0.00 | 0.00 | 67 | 1014.5 |
| 20260506004922 | 66 | 157 | 1.7 | 4.3 | 0.00 | 0.00 | 0.00 | 68 | 1014.4 |
| 20260506004422 | 66 | 113 | 0.9 | 4.3 | 0.00 | 0.00 | 0.00 | 67 | 1014.4 |
| 20260506003922 | 66 | 59 | 0.9 | 4.3 | 0.00 | 0.00 | 0.00 | 66 | 1014.4 |
| 20260506003421 | 66 | 104 | 0.0 | 1.7 | 0.00 | 0.00 | 0.00 | 66 | 1014.4 |
| 20260506002421 | 66 | 102 | 0.0 | 5.2 | 0.00 | 0.00 | 0.00 | 65 | 1014.4 |
| 20260506001922 | 66 | 180 | 1.7 | 5.2 | 0.00 | 0.00 | 0.00 | 65 | 1014.4 |
| 20260506001422 | 66 | 195 | 2.6 | 4.3 | 0.00 | 0.00 | 0.00 | 66 | 1014.4 |
| 20260506000922 | 66 | 126 | 1.7 | 3.5 | 0.00 | 0.00 | 0.00 | 66 | 1014.5 |
| 20260505235922 | 66 | 157 | 0.0 | 6.1 | 0.00 | 0.00 | 0.00 | 66 | 1014.5 |
| 20260505235421 | 66 | 130 | 1.7 | 6.1 | 0.00 | 0.00 | 0.00 | 68 | 1014.6 |
| 20260505234921 | 66 | 81 | 2.6 | 4.3 | 0.00 | 0.00 | 0.00 | 67 | 1014.6 |
| 20260505234421 | 65 | 16 | 0.9 | 4.3 | 0.00 | 0.00 | 0.00 | 66 | 1014.6 |
| 20260505233921 | 66 | 130 | 0.9 | 4.3 | 0.00 | 0.00 | 0.00 | 67 | 1014.9 |
| 20260505233421 | 66 | 23 | 4.3 | 6.1 | 0.00 | 0.00 | 0.00 | 65 | 1014.9 |
| 20260505232922 | 66 | 36 | 3.5 | 6.1 | 0.00 | 0.00 | 0.00 | 66 | 1014.9 |
| 20260505231921 | 66 | 34 | 3.5 | 6.1 | 0.00 | 0.00 | 0.00 | 67 | 1015.0 |
| 20260505231421 | 66 | 138 | 3.5 | 3.5 | 0.00 | 0.00 | 0.00 | 67 | 1015.0 |
| 20260505230922 | 66 | 63 | 2.6 | 2.6 | 0.00 | 0.00 | 0.00 | 66 | 1015.0 |
| 20260505230421 | 65 | 117 | 0.0 | 0.9 | 0.00 | 0.00 | 0.00 | 67 | 1015.0 |
| 20260505225921 | 65 | 118 | 0.0 | 3.5 | 0.00 | 0.00 | 0.00 | 68 | 1015.0 |
| 20260505225421 | 64 | 117 | 0.0 | 3.5 | 0.00 | 0.00 | 0.00 | 69 | 1015.1 |
| 20260505224921 | 64 | 221 | 2.6 | 3.5 | 0.00 | 0.00 | 0.00 | 68 | 1015.1 |
| 20260505224421 | 64 | 126 | 1.7 | 3.5 | 0.00 | 0.00 | 0.00 | 68 | 1015.1 |
| 20260505223921 | 64 | 130 | 1.7 | 3.5 | 0.00 | 0.00 | 0.00 | 68 | 1015.3 |
| 20260505223421 | 64 | 116 | 2.6 | 3.5 | 0.00 | 0.00 | 0.00 | 68 | 1015.3 |
| 20260505222921 | 65 | 163 | 1.7 | 3.5 | 0.00 | 0.00 | 0.00 | 68 | 1015.3 |
| 20260505222421 | 64 | 62 | 0.0 | 2.6 | 0.00 | 0.00 | 0.00 | 67 | 1015.4 |
| 20260505221921 | 64 | 59 | 0.0 | 4.3 | 0.00 | 0.00 | 0.00 | 68 | 1015.4 |
| 20260505220921 | 64 | 152 | 0.0 | 2.6 | 0.00 | 0.00 | 0.00 | 70 | 1015.5 |
| 20260505220420 | 64 | 116 | 0.9 | 2.6 | 0.00 | 0.00 | 0.00 | 69 | 1015.5 |
| 20260505215921 | 64 | 74 | 0.9 | 2.6 | 0.00 | 0.00 | 0.00 | 70 | 1015.5 |
| 20260505215420 | 64 | 44 | 1.7 | 2.6 | 0.00 | 0.00 | 0.00 | 69 | 1015.7 |
| 20260505214921 | 64 | 36 | 0.0 | 1.7 | 0.00 | 0.00 | 0.00 | 73 | 1015.7 |
| 20260505214421 | 63 | 143 | 0.9 | 3.5 | 0.00 | 0.00 | 0.00 | 72 | 1015.7 |
| 20260505213920 | 63 | 85 | 1.7 | 4.3 | 0.00 | 0.00 | 0.00 | 72 | 1015.7 |
| 20260505213421 | 63 | 135 | 2.6 | 4.3 | 0.00 | 0.00 | 0.00 | 71 | 1015.7 |
| 20260505212921 | 63 | 175 | 3.5 | 4.3 | 0.00 | 0.00 | 0.00 | 72 | 1015.7 |
| 20260505212421 | 62 | 21 | 0.0 | 3.5 | 0.00 | 0.00 | 0.00 | 74 | 1015.8 |
| 20260505211921 | 62 | 18 | 2.6 | 3.5 | 0.00 | 0.00 | 0.00 | 72 | 1015.8 |
| 20260505211420 | 62 | 95 | 0.0 | 4.3 | 0.00 | 0.00 | 0.00 | 72 | 1015.8 |
| 20260505210421 | 62 | 191 | 1.7 | 4.3 | 0.00 | 0.00 | 0.00 | 74 | 1015.9 |
| 20260505205921 | 62 | 113 | 0.9 | 4.3 | 0.00 | 0.00 | 0.00 | 73 | 1015.9 |
| 20260505205420 | 62 | 101 | 0.9 | 4.3 | 0.00 | 0.00 | 0.00 | 74 | 1016.0 |
| 20260505204920 | 61 | 98 | 0.9 | 2.6 | 0.00 | 0.00 | 0.00 | 75 | 1016.0 |
| 20260505204420 | 61 | 111 | 0.9 | 2.6 | 0.00 | 0.00 | 0.00 | 75 | 1016.0 |
| 20260505203921 | 61 | 55 | 1.7 | 3.5 | 0.00 | 0.00 | 0.00 | 75 | 1016.1 |
| 20260505203420 | 61 | 45 | 2.6 | 3.5 | 0.00 | 0.00 | 0.00 | 75 | 1016.1 |
| 20260505202420 | 61 | 147 | 2.6 | 4.3 | 0.00 | 0.00 | 0.00 | 75 | 1016.2 |
| 20260505201420 | 60 | 60 | 0.0 | 4.3 | 0.00 | 0.00 | 0.00 | 76 | 1016.2 |
| 20260505200920 | 60 | 45 | 0.9 | 3.5 | 0.00 | 0.00 | 0.00 | 76 | 1016.2 |
| 20260505200420 | 60 | 51 | 0.0 | 3.5 | 0.00 | 0.00 | 0.00 | 77 | 1016.2 |
| 20260505195920 | 60 | 136 | 0.9 | 2.6 | 0.00 | 0.00 | 0.00 | 78 | 1016.2 |
| 20260505195420 | 60 | 124 | 0.0 | 2.6 | 0.00 | 0.00 | 0.00 | 78 | 1016.3 |
| 20260505194920 | 59 | 46 | 0.0 | 4.3 | 0.00 | 0.00 | 0.00 | 77 | 1016.3 |
| 20260505194420 | 59 | 35 | 0.0 | 4.3 | 0.00 | 0.00 | 0.00 | 76 | 1016.3 |
| 20260505193920 | 60 | 113 | 1.7 | 2.6 | 0.00 | 0.00 | 0.00 | 77 | 1016.3 |
| 20260505193419 | 60 | 113 | 0.9 | 2.6 | 0.00 | 0.00 | 0.00 | 76 | 1016.3 |
| 20260505192920 | 60 | 50 | 0.0 | 2.6 | 0.00 | 0.00 | 0.00 | 79 | 1016.3 |
| 20260505192420 | 59 | 49 | 0.0 | 3.5 | 0.00 | 0.00 | 0.00 | 79 | 1016.3 |
| 20260505191919 | 59 | 44 | 1.7 | 3.5 | 0.00 | 0.00 | 0.00 | 77 | 1016.3 |
| 20260505191420 | 59 | 121 | 0.9 | 2.6 | 0.00 | 0.00 | 0.00 | 77 | 1016.3 |
| 20260505190919 | 59 | 92 | 0.0 | 1.7 | 0.00 | 0.00 | 0.00 | 76 | 1016.2 |
| 20260505190420 | 59 | 68 | 0.0 | 1.7 | 0.00 | 0.00 | 0.00 | 77 | 1016.2 |
| 20260505185920 | 59 | 85 | 1.7 | 1.7 | 0.00 | 0.00 | 0.00 | 78 | 1016.2 |
| 20260505184920 | 58 | 127 | 0.9 | 2.6 | 0.00 | 0.00 | 0.00 | 78 | 1016.3 |
| 20260505184419 | 58 | 148 | 0.9 | 2.6 | 0.00 | 0.00 | 0.00 | 79 | 1016.3 |
| 20260505183919 | 58 | 360 | 0.0 | 2.6 | 0.00 | 0.00 | 0.00 | 79 | 1016.2 |
| 20260505183419 | 58 | 126 | 0.9 | 2.6 | 0.00 | 0.00 | 0.00 | 79 | 1016.2 |
| 20260505182920 | 58 | 360 | 1.7 | 2.6 | 0.00 | 0.00 | 0.00 | 79 | 1016.2 |
| 20260505182419 | 58 | 360 | 0.0 | 3.5 | 0.00 | 0.00 | 0.00 | 79 | 1016.1 |
| 20260505181419 | 58 | 166 | 1.7 | 2.6 | 0.00 | 0.00 | 0.00 | 79 | 1016.1 |
| 20260505180419 | 57 | 121 | 0.9 | 2.6 | 0.00 | 0.00 | 0.00 | 80 | 1016.1 |
| 20260505175919 | 57 | 81 | 0.0 | 2.6 | 0.00 | 0.00 | 0.00 | 81 | 1016.1 |
| 20260505174919 | 57 | 78 | 1.7 | 3.5 | 0.00 | 0.00 | 0.00 | 81 | 1016.1 |
| 20260505174419 | 57 | 167 | 0.0 | 3.5 | 0.00 | 0.00 | 0.00 | 81 | 1016.1 |
| 20260505173920 | 57 | 155 | 2.6 | 2.6 | 0.00 | 0.00 | 0.00 | 81 | 1016.0 |
| 20260505173419 | 57 | 110 | 0.0 | 2.6 | 0.00 | 0.00 | 0.00 | 82 | 1016.0 |
| 20260505172419 | 57 | 141 | 1.7 | 2.6 | 0.00 | 0.00 | 0.00 | 82 | 1016.0 |
| 20260505171919 | 57 | 360 | 1.7 | 2.6 | 0.00 | 0.00 | 0.00 | 82 | 1016.0 |
| 20260505171419 | 56 | 360 | 0.0 | 2.6 | 0.00 | 0.00 | 0.00 | 82 | 1016.0 |
| 20260505170419 | 56 | 360 | 0.0 | 3.5 | 0.00 | 0.00 | 0.00 | 83 | 1015.9 |
| 20260505165919 | 56 | 360 | 0.9 | 3.5 | 0.00 | 0.00 | 0.00 | 83 | 1015.9 |
| 20260505165419 | 56 | 360 | 0.9 | 3.5 | 0.00 | 0.00 | 0.00 | 85 | 1015.9 |
| 20260505163919 | 56 | 360 | 1.7 | 2.6 | 0.00 | 0.00 | 0.00 | 85 | 1015.7 |
| 20260505163419 | 56 | 360 | 0.0 | 2.6 | 0.00 | 0.00 | 0.00 | 85 | 1015.7 |
| 20260505162919 | 56 | 360 | 1.7 | 2.6 | 0.00 | 0.00 | 0.00 | 86 | 1015.7 |
| 20260505162419 | 56 | 360 | 0.0 | 2.6 | 0.00 | 0.00 | 0.00 | 86 | 1015.7 |
| 20260505161419 | 55 | 360 | 0.0 | 1.7 | 0.00 | 0.00 | 0.00 | 87 | 1015.7 |
| 20260505160919 | 55 | 360 | 0.0 | 2.6 | 0.00 | 0.00 | 0.00 | 87 | 1015.7 |
| 20260505160449 | 55 | 360 | 0.9 | 2.6 | 0.00 | 0.00 | 0.00 | 87 | 1015.7 |
| 20260505152918 | 54 | 360 | 0.0 | 0.0 | 0.00 | 0.00 | 0.00 | 90 | 1015.6 |
| 20260505152419 | 53 | 360 | 0.0 | 0.0 | 0.00 | 0.00 | 0.00 | 91 | 1015.6 |
| 20260505151919 | 53 | 360 | 0.0 | 0.0 | 0.00 | 0.00 | 0.00 | 92 | 1015.6 |
| 20260505151418 | 53 | 360 | 0.0 | 0.0 | 0.00 | 0.00 | 0.00 | 92 | 1015.6 |
| 20260505150919 | 53 | 360 | 0.0 | 0.0 | 0.00 | 0.00 | 0.00 | 93 | 1015.5 |
| 20260505140418 | 51 | 360 | 0.0 | 0.0 | 0.00 | 0.00 | 0.00 | 99 | 1015.1 |
| 20260505124917 | 49 | 142 | 0.0 | 0.0 | 0.00 | 0.00 | 0.00 | 99 | 1014.7 |
| 20260505124416 | 49 | 143 | 0.0 | 0.0 | 0.00 | 0.00 | 0.00 | 99 | 1014.7 |
| 20260505123916 | 49 | 360 | 0.0 | 0.0 | 0.00 | 0.00 | 0.00 | 99 | 1014.6 |
| 20260505123417 | 49 | 360 | 0.0 | 0.0 | 0.00 | 0.00 | 0.00 | 99 | 1014.6 |
| 20260505122917 | 49 | 360 | 0.0 | 0.0 | 0.00 | 0.00 | 0.00 | 99 | 1014.6 |
| 20260505122417 | 48 | 360 | 0.0 | 0.0 | 0.00 | 0.00 | 0.00 | 99 | 1014.6 |
| 20260505121916 | 48 | 360 | 0.0 | 0.0 | 0.00 | 0.00 | 0.00 | 99 | 1014.6 |
| 20260505121417 | 48 | 360 | 0.0 | 0.0 | 0.00 | 0.00 | 0.00 | 99 | 1014.6 |
| 20260505120917 | 48 | 360 | 0.0 | 0.0 | 0.00 | 0.00 | 0.00 | 99 | 1014.6 |
| 20260505120416 | 48 | 360 | 0.0 | 0.0 | 0.00 | 0.00 | 0.00 | 99 | 1014.6 |
| 20260505115416 | 48 | 141 | 0.0 | 0.0 | 0.00 | 0.00 | 0.00 | 99 | 1014.6 |
| 20260505114916 | 48 | 141 | 0.0 | 0.0 | 0.00 | 0.00 | 0.00 | 98 | 1014.6 |
| 20260505114416 | 47 | 140 | 0.0 | 0.0 | 0.00 | 0.00 | 0.00 | 98 | 1014.6 |
| 20260505113917 | 47 | 140 | 0.0 | 0.0 | 0.00 | 0.00 | 0.00 | 98 | 1014.6 |
| 20260505113416 | 47 | 140 | 0.0 | 0.0 | 0.00 | 0.00 | 0.00 | 97 | 1014.6 |
| 20260505112916 | 47 | 140 | 0.0 | 0.0 | 0.00 | 0.00 | 0.00 | 96 | 1014.6 |
| 20260505112416 | 47 | 140 | 0.0 | 0.0 | 0.00 | 0.00 | 0.00 | 96 | 1014.5 |
| 20260505111916 | 47 | 360 | 0.0 | 0.0 | 0.00 | 0.00 | 0.00 | 96 | 1014.5 |
| 20260505111416 | 46 | 360 | 0.0 | 0.0 | 0.00 | 0.00 | 0.00 | 96 | 1014.5 |
| 20260505101916 | 46 | 360 | 0.0 | 0.0 | 0.00 | 0.00 | 0.00 | 94 | 1013.9 |
| 20260505101415 | 46 | 360 | 0.0 | 0.0 | 0.00 | 0.00 | 0.00 | 94 | 1013.9 |
| 20260505100415 | 46 | 360 | 0.0 | 0.0 | 0.00 | 0.00 | 0.00 | 93 | 1014.0 |
| 20260505095915 | 46 | 360 | 0.0 | 0.0 | 0.00 | 0.00 | 0.00 | 93 | 1014.0 |
| 20260505095415 | 46 | 360 | 0.0 | 0.0 | 0.00 | 0.00 | 0.00 | 93 | 1014.0 |
| 20260505093415 | 47 | 360 | 0.0 | 0.0 | 0.00 | 0.00 | 0.00 | 93 | 1013.9 |
| 20260505092915 | 47 | 360 | 0.0 | 0.0 | 0.00 | 0.00 | 0.00 | 93 | 1013.9 |
| 20260505091414 | 47 | 360 | 0.0 | 0.0 | 0.00 | 0.00 | 0.00 | 93 | 1013.8 |
| 20260505090915 | 48 | 360 | 0.0 | 0.0 | 0.00 | 0.00 | 0.00 | 93 | 1013.7 |
| 20260505090415 | 48 | 360 | 0.0 | 0.0 | 0.00 | 0.00 | 0.00 | 93 | 1013.7 |
| 20260505085914 | 48 | 360 | 0.0 | 0.0 | 0.00 | 0.00 | 0.00 | 93 | 1013.7 |
| 20260505084915 | 48 | 360 | 0.0 | 0.0 | 0.00 | 0.00 | 0.00 | 93 | 1013.7 |
| 20260505083914 | 48 | 360 | 0.0 | 0.0 | 0.00 | 0.00 | 0.00 | 92 | 1013.6 |
| 20260505083415 | 49 | 360 | 0.0 | 0.0 | 0.00 | 0.00 | 0.00 | 92 | 1013.6 |
| 20260505082914 | 49 | 360 | 0.0 | 0.0 | 0.00 | 0.00 | 0.00 | 92 | 1013.6 |
| 20260505082414 | 49 | 360 | 0.0 | 0.0 | 0.00 | 0.00 | 0.00 | 92 | 1013.5 |
| 20260505081914 | 49 | 360 | 0.0 | 0.0 | 0.00 | 0.00 | 0.00 | 92 | 1013.5 |
| 20260505081414 | 49 | 360 | 0.0 | 0.0 | 0.00 | 0.00 | 0.00 | 92 | 1013.5 |
| 20260505080914 | 50 | 360 | 0.0 | 0.0 | 0.00 | 0.00 | 0.00 | 92 | 1013.3 |
| 20260505075914 | 50 | 360 | 0.0 | 0.0 | 0.00 | 0.00 | 0.00 | 92 | 1013.3 |
| 20260505074914 | 50 | 360 | 0.0 | 0.0 | 0.00 | 0.00 | 0.00 | 92 | 1013.2 |
| 20260505074414 | 50 | 360 | 0.0 | 0.0 | 0.00 | 0.00 | 0.00 | 92 | 1013.2 |
| 20260505073914 | 50 | 360 | 0.0 | 0.0 | 0.00 | 0.00 | 0.00 | 92 | 1012.9 |
| 20260505073414 | 50 | 360 | 0.0 | 0.0 | 0.00 | 0.00 | 0.00 | 91 | 1012.9 |
| 20260505072414 | 50 | 360 | 0.0 | 0.0 | 0.00 | 0.00 | 0.00 | 90 | 1012.9 |
| 20260505071914 | 50 | 141 | 0.0 | 0.0 | 0.00 | 0.00 | 0.00 | 90 | 1012.9 |
| 20260505071414 | 51 | 360 | 0.0 | 0.0 | 0.00 | 0.00 | 0.00 | 90 | 1012.9 |
| 20260505070913 | 51 | 360 | 0.0 | 0.0 | 0.00 | 0.00 | 0.00 | 90 | 1012.9 |
| 20260505070414 | 51 | 360 | 0.0 | 0.0 | 0.00 | 0.00 | 0.00 | 90 | 1012.9 |
| 20260505065914 | 51 | 360 | 0.0 | 0.0 | 0.00 | 0.00 | 0.00 | 89 | 1012.9 |
| 20260505064413 | 51 | 360 | 0.0 | 0.0 | 0.00 | 0.00 | 0.00 | 89 | 1012.8 |
| 20260505063914 | 51 | 360 | 0.0 | 0.0 | 0.00 | 0.00 | 0.00 | 88 | 1012.7 |
| 20260505062913 | 52 | 360 | 0.0 | 0.9 | 0.00 | 0.00 | 0.00 | 88 | 1012.8 |
| 20260505062413 | 52 | 360 | 0.0 | 0.9 | 0.00 | 0.00 | 0.00 | 88 | 1012.8 |
| 20260505061913 | 52 | 360 | 0.0 | 0.0 | 0.00 | 0.00 | 0.00 | 87 | 1012.7 |
| 20260505060913 | 52 | 360 | 0.0 | 0.0 | 0.00 | 0.00 | 0.00 | 87 | 1012.7 |
| 20260505060413 | 52 | 360 | 0.0 | 0.0 | 0.00 | 0.00 | 0.00 | 87 | 1012.7 |
| 20260505055913 | 52 | 360 | 0.0 | 0.0 | 0.00 | 0.00 | 0.00 | 87 | 1012.7 |
| 20260505055413 | 52 | 360 | 0.0 | 0.0 | 0.00 | 0.00 | 0.00 | 87 | 1012.5 |
| 20260505054913 | 52 | 360 | 0.0 | 0.0 | 0.00 | 0.00 | 0.00 | 87 | 1012.5 |
| 20260505054413 | 53 | 360 | 0.0 | 0.0 | 0.00 | 0.00 | 0.00 | 86 | 1012.6 |
| 20260505053913 | 53 | 360 | 0.0 | 0.0 | 0.00 | 0.00 | 0.00 | 86 | 1012.6 |
| 20260505053412 | 53 | 360 | 0.0 | 0.0 | 0.00 | 0.00 | 0.00 | 86 | 1012.6 |
| 20260505052913 | 53 | 360 | 0.0 | 0.0 | 0.00 | 0.00 | 0.00 | 86 | 1012.6 |
| 20260505052412 | 53 | 360 | 0.0 | 0.9 | 0.00 | 0.00 | 0.00 | 86 | 1012.6 |
| 20260505051912 | 54 | 360 | 0.0 | 0.9 | 0.00 | 0.00 | 0.00 | 86 | 1012.6 |
| 20260505050912 | 54 | 360 | 0.0 | 1.7 | 0.00 | 0.00 | 0.00 | 86 | 1012.4 |
| 20260505050413 | 54 | 360 | 0.0 | 1.7 | 0.00 | 0.00 | 0.00 | 85 | 1012.4 |